status,avgMeasuredTime,avgSpeed,extID,medianMeasuredTime,TIMESTAMP,vehicleCount,_id,REPORT_ID
OK,33,65,913,33,2014-08-01T08:00:00,16,20746968,190583
OK,34,63,913,34,2014-08-01T08:05:00,13,20747417,190583
OK,31,69,913,31,2014-08-01T08:10:00,12,20747790,190583
OK,29,74,913,29,2014-08-01T08:15:00,11,20748239,190583
OK,30,72,913,30,2014-08-01T08:20:00,10,20748688,190583
OK,32,67,913,32,2014-08-01T08:25:00,17,20749137,190583
OK,36,60,913,36,2014-08-01T08:30:00,23,20749586,190583
OK,36,60,913,36,2014-08-01T08:35:00,19,20750035,190583
OK,35,61,913,35,2014-08-01T08:40:00,13,20750484,190583
OK,33,65,913,33,2014-08-01T08:45:00,16,20750933,190583
OK,32,67,913,32,2014-08-01T08:50:00,18,20751382,190583
OK,34,63,913,34,2014-08-01T08:55:00,17,20751831,190583
OK,36,60,913,36,2014-08-01T09:00:00,14,20752280,190583
OK,33,65,913,33,2014-08-01T09:05:00,11,20752729,190583
OK,29,74,913,29,2014-08-01T09:10:00,13,20753178,190583
OK,33,65,913,33,2014-08-01T09:20:00,14,20754076,190583
OK,34,63,913,34,2014-08-01T09:25:00,18,20754525,190583
OK,36,60,913,36,2014-08-01T09:30:00,13,20754974,190583
OK,35,61,913,35,2014-08-01T09:35:00,11,20755423,190583
OK,35,61,913,35,2014-08-01T09:40:00,17,20755872,190583
OK,34,63,913,34,2014-08-01T09:45:00,12,20756321,190583
OK,34,63,913,34,2014-08-01T09:50:00,17,20756770,190583
OK,35,61,913,35,2014-08-01T09:55:00,18,20757219,190583
OK,35,61,913,35,2014-08-01T10:00:00,11,20757668,190583
OK,32,67,913,32,2014-08-01T10:05:00,13,20758117,190583
OK,34,63,913,34,2014-08-01T10:15:00,16,20759015,190583
OK,36,60,913,36,2014-08-01T10:20:00,13,20759464,190583
OK,36,60,913,36,2014-08-01T10:25:00,14,20759913,190583
OK,34,63,913,34,2014-08-01T10:30:00,16,20760362,190583
OK,35,61,913,35,2014-08-01T10:35:00,12,20760811,190583
OK,35,61,913,35,2014-08-01T10:40:00,12,20761260,190583
OK,31,69,913,31,2014-08-01T10:45:00,12,20761709,190583
OK,34,63,913,34,2014-08-01T10:50:00,12,20762158,190583
OK,37,58,913,37,2014-08-01T10:55:00,15,20762607,190583
OK,36,60,913,36,2014-08-01T11:00:00,13,20763056,190583
OK,35,61,913,35,2014-08-01T11:05:00,12,20763505,190583
OK,31,69,913,31,2014-08-01T11:10:00,21,20763954,190583
OK,31,69,913,31,2014-08-01T11:15:00,21,20764402,190583
OK,32,67,913,32,2014-08-01T11:20:00,13,20764851,190583
OK,32,67,913,32,2014-08-01T11:25:00,14,20765300,190583
OK,32,67,913,32,2014-08-01T11:30:00,13,20765749,190583
OK,32,67,913,32,2014-08-01T11:35:00,11,20766198,190583
OK,36,60,913,36,2014-08-01T11:40:00,9,20766647,190583
OK,38,57,913,38,2014-08-01T11:45:00,13,20767096,190583
OK,35,61,913,35,2014-08-01T11:50:00,17,20767545,190583
OK,35,61,913,35,2014-08-01T11:55:00,12,20767994,190583
OK,33,65,913,33,2014-08-01T12:00:00,8,20768443,190583
OK,27,80,913,27,2014-08-01T12:05:00,11,20768892,190583
OK,32,67,913,32,2014-08-01T12:10:00,15,20769341,190583
OK,32,67,913,32,2014-08-01T12:15:00,8,20769790,190583
OK,33,65,913,33,2014-08-01T12:20:00,5,20770239,190583
OK,33,65,913,33,2014-08-01T12:25:00,11,20770688,190583
OK,34,63,913,34,2014-08-01T12:30:00,18,20771137,190583
OK,34,63,913,34,2014-08-01T12:35:00,17,20771586,190583
OK,32,67,913,32,2014-08-01T12:40:00,18,20772035,190583
OK,34,63,913,34,2014-08-01T12:45:00,16,20772484,190583
OK,38,57,913,38,2014-08-01T12:50:00,17,20772933,190583
OK,35,61,913,35,2014-08-01T12:55:00,21,20773382,190583
OK,31,69,913,31,2014-08-01T13:00:00,19,20773831,190583
OK,35,61,913,35,2014-08-01T13:05:00,18,20774280,190583
OK,35,61,913,35,2014-08-01T13:10:00,20,20774729,190583
OK,33,65,913,33,2014-08-01T13:15:00,17,20775178,190583
OK,30,72,913,30,2014-08-01T13:20:00,16,20775627,190583
OK,30,72,913,30,2014-08-01T13:25:00,17,20776076,190583
OK,32,67,913,32,2014-08-01T13:30:00,13,20776525,190583
OK,39,55,913,39,2014-08-01T13:35:00,13,20776974,190583
OK,51,42,913,51,2014-08-01T13:40:00,10,20777423,190583
OK,34,63,913,34,2014-08-01T13:45:00,13,20777872,190583
OK,34,63,913,34,2014-08-01T13:50:00,16,20778321,190583
OK,39,55,913,39,2014-08-01T14:00:00,9,20779219,190583
OK,47,46,913,47,2014-08-01T14:05:00,9,20779668,190583
OK,39,55,913,39,2014-08-01T14:10:00,9,20780117,190583
OK,38,57,913,38,2014-08-01T14:15:00,5,20780566,190583
OK,50,43,913,50,2014-08-01T14:20:00,6,20781015,190583
OK,47,46,913,47,2014-08-01T14:25:00,14,20781464,190583
OK,46,47,913,46,2014-08-01T14:30:00,14,20781913,190583
OK,40,54,913,40,2014-08-01T14:35:00,10,20782362,190583
OK,40,54,913,40,2014-08-01T14:40:00,9,20782811,190583
OK,40,54,913,40,2014-08-01T14:45:00,7,20783260,190583
OK,47,46,913,47,2014-08-01T14:50:00,10,20783709,190583
OK,47,46,913,47,2014-08-01T14:55:00,9,20784158,190583
OK,34,63,913,34,2014-08-01T15:00:00,4,20784607,190583
OK,32,67,913,32,2014-08-01T15:05:00,9,20785056,190583
OK,34,63,913,34,2014-08-01T15:10:00,12,20785505,190583
OK,39,55,913,39,2014-08-01T15:15:00,9,20785954,190583
OK,39,55,913,39,2014-08-01T15:20:00,9,20786403,190583
OK,39,55,913,39,2014-08-01T15:25:00,10,20786852,190583
OK,37,58,913,37,2014-08-01T15:30:00,6,20787301,190583
OK,39,55,913,39,2014-08-01T15:35:00,9,20787750,190583
OK,35,61,913,35,2014-08-01T15:40:00,8,20788199,190583
OK,31,69,913,31,2014-08-01T15:45:00,8,20788648,190583
OK,34,63,913,34,2014-08-01T15:50:00,8,20789097,190583
OK,31,69,913,31,2014-08-01T15:55:00,10,20789546,190583
OK,30,72,913,30,2014-08-01T16:00:00,15,20789995,190583
OK,29,74,913,29,2014-08-01T16:05:00,9,20790444,190583
OK,39,55,913,39,2014-08-01T16:10:00,4,20790893,190583
OK,29,74,913,29,2014-08-01T16:15:00,5,20791342,190583
OK,30,72,913,30,2014-08-01T16:20:00,7,20791791,190583
OK,31,69,913,31,2014-08-01T16:25:00,10,20792240,190583
OK,32,67,913,32,2014-08-01T16:30:00,13,20792689,190583
OK,30,72,913,30,2014-08-01T16:35:00,12,20793138,190583
OK,29,74,913,29,2014-08-01T16:40:00,8,20793587,190583
OK,31,69,913,31,2014-08-01T16:45:00,9,20794036,190583
OK,36,60,913,36,2014-08-01T16:50:00,6,20794485,190583
OK,31,69,913,31,2014-08-01T16:55:00,5,20794934,190583
OK,29,74,913,29,2014-08-01T17:00:00,3,20795383,190583
OK,32,67,913,32,2014-08-01T17:05:00,2,20795832,190583
OK,40,54,913,40,2014-08-01T17:10:00,3,20796281,190583
OK,28,77,913,28,2014-08-01T17:15:00,7,20796730,190583
OK,27,80,913,27,2014-08-01T17:20:00,8,20797179,190583
OK,31,69,913,31,2014-08-01T17:25:00,9,20797628,190583
OK,28,77,913,28,2014-08-01T17:30:00,8,20798077,190583
OK,28,77,913,28,2014-08-01T17:35:00,3,20798526,190583
OK,26,83,913,26,2014-08-01T17:40:00,4,20798975,190583
OK,26,83,913,26,2014-08-01T17:45:00,6,20799424,190583
OK,28,77,913,28,2014-08-01T17:50:00,3,20799873,190583
OK,28,77,913,28,2014-08-01T17:55:00,1,20800322,190583
OK,33,65,913,33,2014-08-01T18:00:00,3,20800771,190583
OK,31,69,913,31,2014-08-01T18:05:00,4,20801220,190583
OK,29,74,913,29,2014-08-01T18:10:00,5,20801669,190583
OK,29,74,913,29,2014-08-01T18:15:00,5,20802118,190583
OK,30,72,913,30,2014-08-01T18:20:00,3,20802567,190583
OK,29,74,913,29,2014-08-01T18:25:00,6,20803016,190583
OK,29,74,913,29,2014-08-01T18:30:00,5,20803465,190583
OK,33,65,913,33,2014-08-01T18:35:00,4,20803914,190583
OK,37,58,913,37,2014-08-01T18:40:00,2,20804363,190583
OK,34,63,913,34,2014-08-01T18:45:00,3,20804812,190583
OK,33,65,913,33,2014-08-01T18:50:00,4,20805261,190583
OK,31,69,913,31,2014-08-01T18:55:00,3,20805710,190583
OK,29,74,913,29,2014-08-01T19:00:00,4,20806159,190583
OK,30,72,913,30,2014-08-01T19:05:00,4,20806608,190583
OK,30,72,913,30,2014-08-01T19:10:00,6,20807057,190583
OK,32,67,913,32,2014-08-01T19:15:00,7,20807506,190583
OK,31,69,913,31,2014-08-01T19:20:00,3,20807955,190583
OK,31,69,913,31,2014-08-01T19:25:00,3,20808404,190583
OK,32,67,913,32,2014-08-01T19:30:00,2,20808853,190583
OK,28,77,913,28,2014-08-01T19:35:00,0,20809302,190583
OK,29,74,913,29,2014-08-01T19:40:00,2,20809751,190583
OK,26,83,913,26,2014-08-01T19:45:00,1,20810200,190583
OK,27,80,913,27,2014-08-01T19:50:00,2,20810649,190583
OK,27,80,913,27,2014-08-01T19:55:00,4,20811098,190583
OK,26,83,913,26,2014-08-01T22:00:00,0,20816827,190583
OK,34,63,913,34,2014-08-02T00:00:00,1,20823266,190583
OK,34,63,913,34,2014-08-02T00:05:00,0,20823715,190583
OK,34,63,913,34,2014-08-02T00:10:00,0,20824164,190583
OK,26,83,913,26,2014-08-02T00:15:00,1,20824613,190583
OK,29,74,913,29,2014-08-02T00:20:00,1,20825062,190583
OK,29,74,913,29,2014-08-02T00:25:00,0,20825511,190583
OK,29,74,913,29,2014-08-02T00:30:00,0,20825960,190583
OK,29,74,913,29,2014-08-02T00:35:00,0,20826409,190583
OK,29,74,913,29,2014-08-02T00:40:00,0,20826858,190583
OK,29,74,913,29,2014-08-02T00:45:00,0,20827307,190583
OK,29,74,913,29,2014-08-02T00:50:00,0,20827756,190583
OK,27,80,913,27,2014-08-02T00:55:00,1,20828205,190583
OK,42,51,913,42,2014-08-02T01:00:00,1,20828654,190583
OK,42,51,913,42,2014-08-02T01:05:00,1,20829103,190583
OK,42,51,913,42,2014-08-02T01:10:00,0,20829552,190583
OK,42,51,913,42,2014-08-02T01:15:00,0,20830001,190583
OK,42,51,913,42,2014-08-02T01:20:00,0,20830450,190583
OK,42,51,913,42,2014-08-02T01:25:00,0,20830899,190583
OK,42,51,913,42,2014-08-02T01:30:00,0,20831348,190583
OK,42,51,913,42,2014-08-02T01:35:00,0,20831797,190583
OK,42,51,913,42,2014-08-02T01:40:00,0,20832246,190583
OK,42,51,913,42,2014-08-02T01:45:00,0,20832695,190583
OK,42,51,913,42,2014-08-02T01:50:00,0,20833144,190583
OK,25,86,913,25,2014-08-02T01:55:00,1,20833593,190583
OK,25,86,913,25,2014-08-02T02:00:00,1,20834042,190583
OK,25,86,913,25,2014-08-02T02:05:00,0,20834491,190583
OK,25,86,913,25,2014-08-02T02:10:00,0,20834940,190583
OK,25,86,913,25,2014-08-02T02:15:00,0,20835389,190583
OK,28,77,913,28,2014-08-02T02:20:00,1,20835838,190583
OK,28,77,913,28,2014-08-02T02:25:00,0,20836287,190583
OK,26,83,913,26,2014-08-02T02:30:00,1,20836736,190583
OK,26,83,913,26,2014-08-02T02:35:00,0,20837185,190583
OK,26,83,913,26,2014-08-02T02:40:00,0,20837634,190583
OK,26,83,913,26,2014-08-02T02:45:00,0,20838083,190583
OK,26,83,913,26,2014-08-02T02:50:00,0,20838532,190583
OK,26,83,913,26,2014-08-02T02:55:00,0,20838981,190583
OK,26,83,913,26,2014-08-02T03:00:00,0,20839430,190583
OK,26,83,913,26,2014-08-02T03:05:00,0,20839879,190583
OK,26,83,913,26,2014-08-02T03:10:00,0,20840328,190583
OK,26,83,913,26,2014-08-02T03:15:00,0,20840777,190583
OK,26,83,913,26,2014-08-02T03:20:00,0,20841226,190583
OK,26,83,913,26,2014-08-02T03:25:00,0,20841675,190583
OK,27,80,913,27,2014-08-02T03:30:00,1,20842124,190583
OK,27,80,913,27,2014-08-02T03:35:00,0,20842573,190583
OK,23,94,913,23,2014-08-02T03:40:00,2,20843022,190583
OK,23,94,913,23,2014-08-02T03:45:00,0,20843471,190583
OK,23,94,913,23,2014-08-02T03:50:00,0,20843920,190583
OK,23,94,913,23,2014-08-02T03:55:00,0,20844369,190583
OK,32,67,913,32,2014-08-02T06:00:00,4,20851823,190583
OK,25,86,913,25,2014-08-02T06:05:00,3,20852272,190583
OK,33,65,913,33,2014-08-02T06:10:00,3,20852721,190583
OK,30,72,913,30,2014-08-02T06:15:00,2,20853170,190583
OK,29,74,913,29,2014-08-02T06:20:00,5,20853619,190583
OK,29,74,913,29,2014-08-02T06:25:00,8,20854068,190583
OK,31,69,913,31,2014-08-02T06:30:00,8,20854517,190583
OK,36,60,913,36,2014-08-02T06:35:00,4,20854966,190583
OK,32,67,913,32,2014-08-02T06:40:00,4,20855415,190583
OK,32,67,913,32,2014-08-02T06:45:00,9,20855864,190583
OK,27,80,913,27,2014-08-02T06:50:00,7,20856313,190583
OK,25,86,913,25,2014-08-02T06:55:00,4,20856762,190583
OK,28,77,913,28,2014-08-02T07:00:00,1,20857211,190583
OK,28,77,913,28,2014-08-02T07:05:00,0,20857660,190583
OK,28,77,913,28,2014-08-02T07:10:00,0,20858109,190583
OK,28,77,913,28,2014-08-02T07:15:00,6,20858558,190583
OK,30,72,913,30,2014-08-02T07:20:00,12,20859007,190583
OK,30,72,913,30,2014-08-02T07:25:00,13,20859456,190583
OK,29,74,913,29,2014-08-02T07:30:00,7,20859905,190583
OK,34,63,913,34,2014-08-02T07:35:00,2,20860354,190583
OK,33,65,913,33,2014-08-02T07:40:00,5,20860803,190583
OK,29,74,913,29,2014-08-02T07:45:00,7,20861252,190583
OK,28,77,913,28,2014-08-02T07:50:00,10,20861701,190583
OK,30,72,913,30,2014-08-02T07:55:00,11,20862150,190583
OK,31,69,913,31,2014-08-02T08:00:00,9,20862599,190583
OK,30,72,913,30,2014-08-02T08:05:00,13,20863048,190583
OK,29,74,913,29,2014-08-02T08:10:00,8,20863497,190583
OK,32,67,913,32,2014-08-02T08:15:00,6,20863946,190583
OK,33,65,913,33,2014-08-02T08:20:00,10,20864395,190583
OK,34,63,913,34,2014-08-02T08:25:00,17,20864844,190583
OK,37,58,913,37,2014-08-02T08:30:00,8,20865293,190583
OK,33,65,913,33,2014-08-02T08:35:00,10,20865742,190583
OK,34,63,913,34,2014-08-02T08:40:00,23,20866191,190583
OK,33,65,913,33,2014-08-02T08:45:00,17,20866640,190583
OK,33,65,913,33,2014-08-02T08:50:00,8,20867089,190583
OK,36,60,913,36,2014-08-02T08:55:00,11,20867538,190583
OK,33,65,913,33,2014-08-02T09:00:00,15,20867987,190583
OK,28,77,913,28,2014-08-02T09:05:00,16,20868436,190583
OK,30,72,913,30,2014-08-02T09:10:00,9,20868885,190583
OK,36,60,913,36,2014-08-02T09:15:00,10,20869334,190583
OK,36,60,913,36,2014-08-02T09:20:00,14,20869783,190583
OK,33,65,913,33,2014-08-02T09:25:00,12,20870232,190583
OK,32,67,913,32,2014-08-02T09:30:00,14,20870681,190583
OK,33,65,913,33,2014-08-02T09:35:00,13,20871130,190583
OK,33,65,913,33,2014-08-02T09:40:00,5,20871579,190583
OK,33,65,913,33,2014-08-02T09:45:00,7,20872028,190583
OK,31,69,913,31,2014-08-02T09:50:00,9,20872477,190583
OK,35,61,913,35,2014-08-02T09:55:00,9,20872926,190583
OK,33,65,913,33,2014-08-02T10:00:00,13,20873375,190583
OK,34,63,913,34,2014-08-02T10:05:00,12,20873824,190583
OK,33,65,913,33,2014-08-02T10:10:00,10,20874273,190583
OK,34,63,913,34,2014-08-02T10:15:00,7,20874722,190583
OK,34,63,913,34,2014-08-02T10:20:00,11,20875171,190583
OK,33,65,913,33,2014-08-02T10:25:00,13,20875620,190583
OK,33,65,913,33,2014-08-02T10:30:00,13,20876069,190583
OK,32,67,913,32,2014-08-02T10:35:00,14,20876518,190583
OK,34,63,913,34,2014-08-02T10:40:00,8,20876967,190583
OK,35,61,913,35,2014-08-02T10:45:00,9,20877416,190583
OK,28,77,913,28,2014-08-02T10:50:00,7,20877865,190583
OK,36,60,913,36,2014-08-02T10:55:00,7,20878314,190583
OK,37,58,913,37,2014-08-02T11:00:00,6,20878763,190583
OK,33,65,913,33,2014-08-02T11:05:00,8,20879212,190583
OK,34,63,913,34,2014-08-02T11:10:00,11,20879661,190583
OK,35,61,913,35,2014-08-02T11:15:00,14,20880110,190583
OK,37,58,913,37,2014-08-02T11:20:00,13,20880559,190583
OK,32,67,913,32,2014-08-02T11:25:00,8,20881008,190583
OK,31,69,913,31,2014-08-02T11:30:00,12,20881457,190583
OK,28,77,913,28,2014-08-02T11:35:00,13,20881906,190583
OK,29,74,913,29,2014-08-02T11:40:00,8,20882355,190583
OK,31,69,913,31,2014-08-02T11:45:00,7,20882804,190583
OK,32,67,913,32,2014-08-02T11:50:00,8,20883253,190583
OK,33,65,913,33,2014-08-02T11:55:00,13,20883702,190583
OK,33,65,913,33,2014-08-02T12:00:00,15,20884151,190583
OK,35,61,913,35,2014-08-02T12:05:00,13,20884600,190583
OK,32,67,913,32,2014-08-02T12:10:00,11,20885049,190583
OK,32,67,913,32,2014-08-02T12:15:00,15,20885498,190583
OK,32,67,913,32,2014-08-02T12:20:00,13,20885947,190583
OK,32,67,913,32,2014-08-02T12:25:00,10,20886396,190583
OK,32,67,913,32,2014-08-02T12:30:00,9,20886845,190583
OK,30,72,913,30,2014-08-02T12:35:00,3,20887294,190583
OK,39,55,913,39,2014-08-02T12:40:00,5,20887743,190583
OK,36,60,913,36,2014-08-02T12:45:00,11,20888192,190583
OK,33,65,913,33,2014-08-02T12:50:00,12,20888641,190583
OK,33,65,913,33,2014-08-02T12:55:00,9,20889090,190583
OK,34,63,913,34,2014-08-02T13:00:00,6,20889539,190583
OK,34,63,913,34,2014-08-02T13:05:00,3,20889988,190583
OK,34,63,913,34,2014-08-02T13:10:00,0,20890437,190583
OK,36,60,913,36,2014-08-02T13:15:00,3,20890886,190583
OK,33,65,913,33,2014-08-02T13:20:00,5,20891335,190583
OK,32,67,913,32,2014-08-02T13:25:00,7,20891784,190583
OK,34,63,913,34,2014-08-02T13:30:00,12,20892233,190583
OK,35,61,913,35,2014-08-02T13:35:00,11,20892682,190583
OK,33,65,913,33,2014-08-02T13:40:00,9,20893131,190583
OK,27,80,913,27,2014-08-02T13:45:00,10,20893580,190583
OK,27,80,913,27,2014-08-02T13:50:00,7,20894029,190583
OK,33,65,913,33,2014-08-02T13:55:00,6,20894478,190583
OK,39,55,913,39,2014-08-02T14:00:00,6,20894927,190583
OK,35,61,913,35,2014-08-02T14:05:00,5,20895376,190583
OK,28,77,913,28,2014-08-02T14:10:00,5,20895825,190583
OK,28,77,913,28,2014-08-02T14:15:00,6,20896274,190583
OK,28,77,913,28,2014-08-02T14:20:00,7,20896723,190583
OK,29,74,913,29,2014-08-02T14:25:00,6,20897172,190583
OK,35,61,913,35,2014-08-02T14:30:00,5,20897621,190583
OK,36,60,913,36,2014-08-02T14:35:00,7,20898070,190583
OK,36,60,913,36,2014-08-02T14:40:00,12,20898519,190583
OK,33,65,913,33,2014-08-02T14:45:00,9,20898968,190583
OK,29,74,913,29,2014-08-02T14:50:00,8,20899417,190583
OK,29,74,913,29,2014-08-02T14:55:00,7,20899866,190583
OK,32,67,913,32,2014-08-02T15:00:00,8,20900315,190583
OK,31,69,913,31,2014-08-02T15:05:00,13,20900764,190583
OK,29,74,913,29,2014-08-02T15:10:00,15,20901213,190583
OK,27,80,913,27,2014-08-02T15:15:00,8,20901662,190583
OK,32,67,913,32,2014-08-02T15:20:00,5,20902111,190583
OK,28,77,913,28,2014-08-02T15:25:00,4,20902560,190583
OK,29,74,913,29,2014-08-02T15:30:00,10,20903009,190583
OK,33,65,913,33,2014-08-02T15:35:00,8,20903458,190583
OK,30,72,913,30,2014-08-02T15:40:00,9,20903907,190583
OK,30,72,913,30,2014-08-02T15:45:00,13,20904356,190583
OK,31,69,913,31,2014-08-02T15:50:00,11,20904805,190583
OK,33,65,913,33,2014-08-02T15:55:00,7,20905254,190583
OK,33,65,913,33,2014-08-02T16:00:00,9,20905703,190583
OK,32,67,913,32,2014-08-02T16:05:00,5,20906152,190583
OK,30,72,913,30,2014-08-02T16:10:00,7,20906601,190583
OK,27,80,913,27,2014-08-02T16:15:00,11,20907050,190583
OK,27,80,913,27,2014-08-02T16:20:00,11,20907499,190583
OK,29,74,913,29,2014-08-02T16:25:00,8,20907948,190583
OK,29,74,913,29,2014-08-02T16:30:00,9,20908397,190583
OK,30,72,913,30,2014-08-02T16:35:00,7,20908846,190583
OK,30,72,913,30,2014-08-02T16:40:00,10,20909295,190583
OK,30,72,913,30,2014-08-02T16:45:00,9,20909744,190583
OK,27,80,913,27,2014-08-02T16:50:00,5,20910193,190583
OK,33,65,913,33,2014-08-02T16:55:00,6,20910642,190583
OK,33,65,913,33,2014-08-02T17:00:00,8,20911091,190583
OK,26,83,913,26,2014-08-02T17:05:00,5,20911540,190583
OK,33,65,913,33,2014-08-02T17:10:00,5,20911989,190583
OK,34,63,913,34,2014-08-02T17:15:00,6,20912438,190583
OK,26,83,913,26,2014-08-02T17:20:00,8,20912887,190583
OK,25,86,913,25,2014-08-02T17:25:00,11,20913336,190583
OK,29,74,913,29,2014-08-02T17:30:00,7,20913785,190583
OK,29,74,913,29,2014-08-02T17:35:00,7,20914234,190583
OK,27,80,913,27,2014-08-02T17:40:00,4,20914683,190583
OK,26,83,913,26,2014-08-02T17:45:00,2,20915132,190583
OK,28,77,913,28,2014-08-02T17:50:00,2,20915581,190583
OK,32,67,913,32,2014-08-02T17:55:00,2,20916030,190583
OK,33,65,913,33,2014-08-02T18:00:00,5,20916479,190583
OK,35,61,913,35,2014-08-02T18:05:00,3,20916928,190583
OK,34,63,913,34,2014-08-02T18:10:00,3,20917377,190583
OK,32,67,913,32,2014-08-02T18:15:00,5,20917826,190583
OK,32,67,913,32,2014-08-02T18:20:00,5,20918275,190583
OK,36,60,913,36,2014-08-02T18:25:00,8,20918724,190583
OK,36,60,913,36,2014-08-02T18:30:00,8,20919173,190583
OK,31,69,913,31,2014-08-02T18:35:00,4,20919622,190583
OK,30,72,913,30,2014-08-02T18:40:00,2,20920071,190583
OK,30,72,913,30,2014-08-02T18:45:00,4,20920520,190583
OK,31,69,913,31,2014-08-02T18:50:00,3,20920969,190583
OK,39,55,913,39,2014-08-02T18:55:00,2,20921418,190583
OK,59,36,913,59,2014-08-02T19:00:00,7,20921867,190583
OK,31,69,913,31,2014-08-02T19:05:00,12,20922316,190583
OK,28,77,913,28,2014-08-02T19:10:00,7,20922765,190583
OK,28,77,913,28,2014-08-02T19:15:00,3,20923214,190583
OK,29,74,913,29,2014-08-02T19:20:00,3,20923663,190583
OK,26,83,913,26,2014-08-02T19:25:00,1,20924112,190583
OK,29,74,913,29,2014-08-02T19:30:00,1,20924561,190583
OK,29,74,913,29,2014-08-02T19:35:00,3,20925010,190583
OK,34,63,913,34,2014-08-02T19:40:00,3,20925459,190583
OK,33,65,913,33,2014-08-02T19:45:00,5,20925908,190583
OK,27,80,913,27,2014-08-02T19:50:00,5,20926357,190583
OK,29,74,913,29,2014-08-02T19:55:00,4,20926806,190583
OK,26,83,913,26,2014-08-02T20:00:00,3,20927255,190583
OK,33,65,913,33,2014-08-02T20:05:00,5,20927704,190583
OK,27,80,913,27,2014-08-02T20:10:00,6,20928153,190583
OK,23,94,913,23,2014-08-02T20:15:00,4,20928602,190583
OK,23,94,913,23,2014-08-02T20:20:00,3,20929051,190583
OK,27,80,913,27,2014-08-02T20:25:00,5,20929500,190583
OK,27,80,913,27,2014-08-02T20:30:00,5,20929949,190583
OK,32,67,913,32,2014-08-02T20:35:00,2,20930398,190583
OK,32,67,913,32,2014-08-02T20:40:00,5,20930847,190583
OK,30,72,913,30,2014-08-02T20:45:00,4,20931296,190583
OK,26,83,913,26,2014-08-02T20:50:00,1,20931745,190583
OK,26,83,913,26,2014-08-02T20:55:00,1,20932194,190583
OK,35,61,913,35,2014-08-02T21:00:00,1,20932643,190583
OK,74,29,913,74,2014-08-02T21:05:00,3,20933092,190583
OK,32,67,913,32,2014-08-02T21:10:00,5,20933541,190583
OK,25,86,913,25,2014-08-02T21:15:00,1,20933990,190583
OK,27,80,913,27,2014-08-02T21:20:00,2,20934439,190583
OK,30,72,913,30,2014-08-02T21:25:00,3,20934888,190583
OK,27,80,913,27,2014-08-02T21:30:00,2,20935337,190583
OK,25,86,913,25,2014-08-02T21:35:00,0,20935786,190583
OK,25,86,913,25,2014-08-02T21:40:00,0,20936235,190583
OK,25,86,913,25,2014-08-02T21:45:00,0,20936684,190583
OK,28,77,913,28,2014-08-02T21:50:00,1,20937133,190583
OK,32,67,913,32,2014-08-02T21:55:00,4,20937582,190583
OK,32,67,913,32,2014-08-02T22:00:00,0,20938031,190583
OK,33,65,913,33,2014-08-02T22:05:00,1,20938480,190583
OK,28,77,913,28,2014-08-02T22:10:00,3,20938929,190583
OK,28,77,913,28,2014-08-02T22:15:00,4,20939378,190583
OK,39,55,913,39,2014-08-02T22:20:00,2,20939827,190583
OK,32,67,913,32,2014-08-02T22:25:00,1,20940276,190583
OK,29,74,913,29,2014-08-02T22:30:00,2,20940725,190583
OK,30,72,913,30,2014-08-02T22:35:00,2,20941174,190583
OK,44,49,913,44,2014-08-02T22:40:00,1,20941623,190583
OK,30,72,913,30,2014-08-02T22:45:00,3,20942072,190583
OK,29,74,913,29,2014-08-02T22:50:00,1,20942521,190583
OK,30,72,913,30,2014-08-02T22:55:00,2,20942970,190583
OK,30,72,913,30,2014-08-02T23:00:00,2,20943419,190583
OK,30,72,913,30,2014-08-02T23:10:00,0,20943868,190583
OK,30,72,913,30,2014-08-02T23:15:00,0,20944317,190583
OK,25,86,913,25,2014-08-02T23:20:00,1,20944766,190583
OK,28,77,913,28,2014-08-02T23:25:00,2,20945215,190583
OK,28,77,913,28,2014-08-02T23:30:00,0,20945664,190583
OK,30,72,913,30,2014-08-02T23:35:00,1,20946113,190583
OK,30,72,913,30,2014-08-02T23:40:00,1,20946562,190583
OK,30,72,913,30,2014-08-02T23:45:00,0,20947011,190583
OK,30,72,913,30,2014-08-02T23:50:00,0,20947460,190583
OK,30,72,913,30,2014-08-02T23:55:00,0,20947909,190583
OK,32,67,913,32,2014-08-03T00:00:00,1,20948358,190583
OK,31,69,913,31,2014-08-03T00:05:00,2,20948807,190583
OK,31,69,913,31,2014-08-03T00:10:00,2,20949255,190583
OK,38,57,913,38,2014-08-03T00:15:00,0,20949704,190583
OK,38,57,913,38,2014-08-03T00:20:00,0,20950153,190583
OK,26,83,913,26,2014-08-03T00:25:00,1,20950602,190583
OK,26,83,913,26,2014-08-03T00:30:00,1,20951051,190583
OK,26,83,913,26,2014-08-03T00:35:00,1,20951500,190583
OK,26,83,913,26,2014-08-03T00:40:00,0,20951949,190583
OK,31,69,913,31,2014-08-03T00:45:00,1,20952398,190583
OK,31,69,913,31,2014-08-03T00:50:00,0,20952847,190583
OK,31,69,913,31,2014-08-03T00:55:00,0,20953296,190583
OK,32,67,913,32,2014-08-03T01:00:00,1,20953745,190583
OK,32,67,913,32,2014-08-03T01:05:00,0,20954194,190583
OK,32,67,913,32,2014-08-03T01:10:00,0,20954643,190583
OK,30,72,913,30,2014-08-03T01:15:00,1,20955092,190583
OK,30,72,913,30,2014-08-03T01:20:00,0,20955541,190583
OK,35,61,913,35,2014-08-03T01:25:00,1,20955990,190583
OK,35,61,913,35,2014-08-03T01:30:00,2,20956439,190583
OK,32,67,913,32,2014-08-03T01:35:00,1,20956888,190583
OK,32,67,913,32,2014-08-03T01:40:00,0,20957337,190583
OK,32,67,913,32,2014-08-03T01:45:00,0,20957786,190583
OK,32,67,913,32,2014-08-03T01:50:00,0,20958235,190583
OK,32,67,913,32,2014-08-03T01:55:00,0,20958684,190583
OK,32,67,913,32,2014-08-03T02:00:00,0,20959133,190583
OK,32,67,913,32,2014-08-03T02:05:00,0,20959582,190583
OK,32,67,913,32,2014-08-03T02:10:00,0,20960031,190583